Year,Month,Day,Hour,Minute,Value (Times are PST for temperature in C)
2014,09,06,00,00,14.10
2014,09,06,00,01,14.10
2014,09,06,00,02,14.00
2014,09,06,00,03,14.00
2014,09,06,00,04,14.00
2014,09,06,00,05,14.00
2014,09,06,00,06,14.00
2014,09,06,00,07,13.90
2014,09,06,00,08,13.90
2014,09,06,00,09,13.90
2014,09,06,00,10,13.90
2014,09,06,00,11,13.90
2014,09,06,00,12,13.90
2014,09,06,00,13,13.80
2014,09,06,00,14,13.80
2014,09,06,00,15,13.80
2014,09,06,00,16,13.80
2014,09,06,00,17,13.80
2014,09,06,00,18,13.80
2014,09,06,00,19,13.80
2014,09,06,00,20,13.80
2014,09,06,00,21,13.80
2014,09,06,00,22,13.70
2014,09,06,00,23,13.70
2014,09,06,00,24,13.70
2014,09,06,00,25,13.70
2014,09,06,00,26,13.70
2014,09,06,00,27,13.70
2014,09,06,00,28,13.60
2014,09,06,00,29,13.60
2014,09,06,00,30,13.60
2014,09,06,00,31,13.60
2014,09,06,00,32,13.60
2014,09,06,00,33,13.60
2014,09,06,00,34,13.60
2014,09,06,00,35,13.60
2014,09,06,00,36,13.60
2014,09,06,00,37,13.60
2014,09,06,00,38,13.50
2014,09,06,00,39,13.50
2014,09,06,00,40,13.50
2014,09,06,00,41,13.50
2014,09,06,00,42,13.50
2014,09,06,00,43,13.50
2014,09,06,00,44,13.50
2014,09,06,00,45,13.50
2014,09,06,00,46,13.40
2014,09,06,00,47,13.40
2014,09,06,00,48,13.40
2014,09,06,00,49,13.40
2014,09,06,00,50,13.40
2014,09,06,00,51,13.40
2014,09,06,00,52,13.40
2014,09,06,00,53,13.30
2014,09,06,00,54,13.30
2014,09,06,00,55,13.30
2014,09,06,00,56,13.30
2014,09,06,00,57,13.30
2014,09,06,00,58,13.30
2014,09,06,00,59,13.30
2014,09,06,01,00,13.20
2014,09,06,01,01,13.20
2014,09,06,01,02,13.20
2014,09,06,01,03,13.20
2014,09,06,01,04,13.20
2014,09,06,01,05,13.20
2014,09,06,01,06,13.20
2014,09,06,01,07,13.20
2014,09,06,01,08,13.20
2014,09,06,01,09,13.10
2014,09,06,01,10,13.10
2014,09,06,01,11,13.10
2014,09,06,01,12,13.10
2014,09,06,01,13,13.10
2014,09,06,01,14,13.10
2014,09,06,01,15,13.10
2014,09,06,01,16,13.10
2014,09,06,01,17,13.00
2014,09,06,01,18,13.00
2014,09,06,01,19,13.00
2014,09,06,01,20,13.00
2014,09,06,01,21,12.90
2014,09,06,01,22,12.90
2014,09,06,01,23,12.90
2014,09,06,01,24,12.90
2014,09,06,01,25,12.90
2014,09,06,01,26,12.90
2014,09,06,01,27,12.90
2014,09,06,01,28,12.90
2014,09,06,01,29,12.90
2014,09,06,01,30,12.90
2014,09,06,01,31,12.90
2014,09,06,01,32,12.90
2014,09,06,01,33,12.90
2014,09,06,01,34,12.90
2014,09,06,01,35,12.80
2014,09,06,01,36,12.80
2014,09,06,01,37,12.80
2014,09,06,01,38,12.80
2014,09,06,01,39,12.80
2014,09,06,01,40,12.80
2014,09,06,01,41,12.80
2014,09,06,01,42,12.80
2014,09,06,01,43,12.80
2014,09,06,01,44,12.80
2014,09,06,01,45,12.80
2014,09,06,01,46,12.80
2014,09,06,01,47,12.70
2014,09,06,01,48,12.70
2014,09,06,01,49,12.70
2014,09,06,01,50,12.70
2014,09,06,01,51,12.70
2014,09,06,01,52,12.70
2014,09,06,01,53,12.70
2014,09,06,01,54,12.70
2014,09,06,01,55,12.60
2014,09,06,01,56,12.60
2014,09,06,01,57,12.60
2014,09,06,01,58,12.60
2014,09,06,01,59,12.60
2014,09,06,02,00,12.60
2014,09,06,02,01,12.60
2014,09,06,02,02,12.60
2014,09,06,02,03,12.60
2014,09,06,02,04,12.60
2014,09,06,02,05,12.60
2014,09,06,02,06,12.60
2014,09,06,02,07,12.60
2014,09,06,02,08,12.60
2014,09,06,02,09,12.60
2014,09,06,02,10,12.60
2014,09,06,02,11,12.60
2014,09,06,02,12,12.60
2014,09,06,02,13,12.60
2014,09,06,02,14,12.50
2014,09,06,02,15,12.50
2014,09,06,02,16,12.50
2014,09,06,02,17,12.50
2014,09,06,02,18,12.40
2014,09,06,02,19,12.40
2014,09,06,02,20,12.40
2014,09,06,02,21,12.40
2014,09,06,02,22,12.40
2014,09,06,02,23,12.40
2014,09,06,02,24,12.40
2014,09,06,02,25,12.40
2014,09,06,02,26,12.40
2014,09,06,02,27,12.40
2014,09,06,02,28,12.30
2014,09,06,02,29,12.30
2014,09,06,02,30,12.30
2014,09,06,02,31,12.30
2014,09,06,02,32,12.30
2014,09,06,02,33,12.30
2014,09,06,02,34,12.30
2014,09,06,02,35,12.30
2014,09,06,02,36,12.30
2014,09,06,02,37,12.30
2014,09,06,02,38,12.30
2014,09,06,02,39,12.30
2014,09,06,02,40,12.20
2014,09,06,02,41,12.20
2014,09,06,02,42,12.20
2014,09,06,02,43,12.20
2014,09,06,02,44,12.20
2014,09,06,02,45,12.20
2014,09,06,02,46,12.20
2014,09,06,02,47,12.20
2014,09,06,02,48,12.20
2014,09,06,02,49,12.20
2014,09,06,02,50,12.20
2014,09,06,02,51,12.20
2014,09,06,02,52,12.20
2014,09,06,02,53,12.20
2014,09,06,02,54,12.20
2014,09,06,02,55,12.20
2014,09,06,02,56,12.20
2014,09,06,02,57,12.20
2014,09,06,02,58,12.20
2014,09,06,02,59,12.20
2014,09,06,03,00,12.10
2014,09,06,03,01,12.10
2014,09,06,03,02,12.10
2014,09,06,03,03,12.10
2014,09,06,03,04,12.10
2014,09,06,03,05,12.10
2014,09,06,03,06,12.10
2014,09,06,03,07,12.10
2014,09,06,03,08,12.10
2014,09,06,03,09,12.00
2014,09,06,03,10,12.00
2014,09,06,03,11,12.00
2014,09,06,03,12,12.00
2014,09,06,03,13,12.00
2014,09,06,03,14,12.00
2014,09,06,03,15,12.00
2014,09,06,03,16,11.90
2014,09,06,03,17,11.90
2014,09,06,03,18,11.90
2014,09,06,03,19,11.90
2014,09,06,03,20,11.90
2014,09,06,03,21,11.90
2014,09,06,03,22,11.90
2014,09,06,03,23,11.90
2014,09,06,03,24,11.90
2014,09,06,03,25,11.90
2014,09,06,03,26,11.90
2014,09,06,03,27,11.90
2014,09,06,03,28,11.80
2014,09,06,03,29,11.90
2014,09,06,03,30,11.90
2014,09,06,03,31,11.90
2014,09,06,03,32,11.90
2014,09,06,03,33,11.90
2014,09,06,03,34,11.90
2014,09,06,03,35,11.90
2014,09,06,03,36,11.90
2014,09,06,03,37,11.90
2014,09,06,03,38,11.90
2014,09,06,03,39,11.80
2014,09,06,03,40,11.80
2014,09,06,03,41,11.80
2014,09,06,03,42,11.80
2014,09,06,03,43,11.80
2014,09,06,03,44,11.80
2014,09,06,03,45,11.80
2014,09,06,03,46,11.80
2014,09,06,03,47,11.80
2014,09,06,03,48,11.80
2014,09,06,03,49,11.80
2014,09,06,03,50,11.80
2014,09,06,03,51,11.80
2014,09,06,03,52,11.80
2014,09,06,03,53,11.80
2014,09,06,03,54,11.80
2014,09,06,03,55,11.80
2014,09,06,03,56,11.70
2014,09,06,03,57,11.70
2014,09,06,03,58,11.70
2014,09,06,03,59,11.70
2014,09,06,04,00,11.70
2014,09,06,04,01,11.70
2014,09,06,04,02,11.70
2014,09,06,04,03,11.70
2014,09,06,04,04,11.70
2014,09,06,04,05,11.70
2014,09,06,04,06,11.70
2014,09,06,04,07,11.70
2014,09,06,04,08,11.70
2014,09,06,04,09,11.70
2014,09,06,04,10,11.70
2014,09,06,04,11,11.70
2014,09,06,04,12,11.60
2014,09,06,04,13,11.60
2014,09,06,04,14,11.60
2014,09,06,04,15,11.60
2014,09,06,04,16,11.60
2014,09,06,04,17,11.60
2014,09,06,04,18,11.60
2014,09,06,04,19,11.60
2014,09,06,04,20,11.60
2014,09,06,04,21,11.60
2014,09,06,04,22,11.60
2014,09,06,04,23,11.60
2014,09,06,04,24,11.60
2014,09,06,04,25,11.60
2014,09,06,04,26,11.60
2014,09,06,04,27,11.60
2014,09,06,04,28,11.60
2014,09,06,04,29,11.60
2014,09,06,04,30,11.60
2014,09,06,04,31,11.60
2014,09,06,04,32,11.60
2014,09,06,04,33,11.60
2014,09,06,04,34,11.60
2014,09,06,04,35,11.60
2014,09,06,04,36,11.60
2014,09,06,04,37,11.60
2014,09,06,04,38,11.50
2014,09,06,04,39,11.50
2014,09,06,04,40,11.50
2014,09,06,04,41,11.50
2014,09,06,04,42,11.50
2014,09,06,04,43,11.50
2014,09,06,04,44,11.50
2014,09,06,04,45,11.40
2014,09,06,04,46,11.40
2014,09,06,04,47,11.40
2014,09,06,04,48,11.40
2014,09,06,04,49,11.40
2014,09,06,04,50,11.40
2014,09,06,04,51,11.40
2014,09,06,04,52,11.40
2014,09,06,04,53,11.40
2014,09,06,04,54,11.40
2014,09,06,04,55,11.40
2014,09,06,04,56,11.40
2014,09,06,04,57,11.40
2014,09,06,04,58,11.40
2014,09,06,04,59,11.40
2014,09,06,05,00,11.40
2014,09,06,05,01,11.30
2014,09,06,05,02,11.30
2014,09,06,05,03,11.30
2014,09,06,05,04,11.30
2014,09,06,05,05,11.30
2014,09,06,05,06,11.30
2014,09,06,05,07,11.30
2014,09,06,05,08,11.30
2014,09,06,05,09,11.30
2014,09,06,05,10,11.30
2014,09,06,05,11,11.30
2014,09,06,05,12,11.30
2014,09,06,05,13,11.30
2014,09,06,05,14,11.30
2014,09,06,05,15,11.30
2014,09,06,05,16,11.30
2014,09,06,05,17,11.30
2014,09,06,05,18,11.30
2014,09,06,05,19,11.30
2014,09,06,05,20,11.30
2014,09,06,05,21,11.30
2014,09,06,05,22,11.30
2014,09,06,05,23,11.30
2014,09,06,05,24,11.30
2014,09,06,05,25,11.30
2014,09,06,05,26,11.30
2014,09,06,05,27,11.30
2014,09,06,05,28,11.30
2014,09,06,05,29,11.30
2014,09,06,05,30,11.30
2014,09,06,05,31,11.30
2014,09,06,05,32,11.30
2014,09,06,05,33,11.30
2014,09,06,05,34,11.30
2014,09,06,05,35,11.30
2014,09,06,05,36,11.30
2014,09,06,05,37,11.30
2014,09,06,05,38,11.30
2014,09,06,05,39,11.30
2014,09,06,05,40,11.30
2014,09,06,05,41,11.30
2014,09,06,05,42,11.30
2014,09,06,05,43,11.30
2014,09,06,05,44,11.30
2014,09,06,05,45,11.30
2014,09,06,05,46,11.30
2014,09,06,05,47,11.30
2014,09,06,05,48,11.30
2014,09,06,05,49,11.30
2014,09,06,05,50,11.20
2014,09,06,05,51,11.20
2014,09,06,05,52,11.20
2014,09,06,05,53,11.20
2014,09,06,05,54,11.20
2014,09,06,05,55,11.20
2014,09,06,05,56,11.20
2014,09,06,05,57,11.20
2014,09,06,05,58,11.20
2014,09,06,05,59,11.20
2014,09,06,06,00,11.20
2014,09,06,06,01,11.10
2014,09,06,06,02,11.10
2014,09,06,06,03,11.10
2014,09,06,06,04,11.10
2014,09,06,06,05,11.10
2014,09,06,06,06,11.10
2014,09,06,06,07,11.10
2014,09,06,06,08,11.00
2014,09,06,06,09,11.00
2014,09,06,06,10,11.00
2014,09,06,06,11,11.00
2014,09,06,06,12,11.00
2014,09,06,06,13,10.90
2014,09,06,06,14,10.90
2014,09,06,06,15,10.90
2014,09,06,06,16,10.90
2014,09,06,06,17,10.90
2014,09,06,06,18,10.90
2014,09,06,06,19,10.90
2014,09,06,06,20,10.90
2014,09,06,06,21,10.90
2014,09,06,06,22,10.90
2014,09,06,06,23,10.90
2014,09,06,06,24,10.90
2014,09,06,06,25,10.90
2014,09,06,06,26,11.00
2014,09,06,06,27,11.00
2014,09,06,06,28,11.00
2014,09,06,06,29,11.00
2014,09,06,06,30,11.00
2014,09,06,06,31,11.00
2014,09,06,06,32,11.00
2014,09,06,06,33,11.00
2014,09,06,06,34,11.00
2014,09,06,06,35,11.00
2014,09,06,06,36,11.00
2014,09,06,06,37,11.10
2014,09,06,06,38,11.10
2014,09,06,06,39,11.10
2014,09,06,06,40,11.10
2014,09,06,06,41,11.10
2014,09,06,06,42,11.10
2014,09,06,06,43,11.10
2014,09,06,06,44,11.10
2014,09,06,06,45,11.10
2014,09,06,06,46,11.20
2014,09,06,06,47,11.20
2014,09,06,06,48,11.20
2014,09,06,06,49,11.20
2014,09,06,06,50,11.20
2014,09,06,06,51,11.20
2014,09,06,06,52,11.20
2014,09,06,06,53,11.20
2014,09,06,06,54,11.20
2014,09,06,06,55,11.30
2014,09,06,06,56,11.30
2014,09,06,06,57,11.30
2014,09,06,06,58,11.30
2014,09,06,06,59,11.40
2014,09,06,07,00,11.40
2014,09,06,07,01,11.40
2014,09,06,07,02,11.50
2014,09,06,07,03,11.50
2014,09,06,07,04,11.60
2014,09,06,07,05,11.60
2014,09,06,07,06,11.60
2014,09,06,07,07,11.60
2014,09,06,07,08,11.60
2014,09,06,07,09,11.60
2014,09,06,07,10,11.70
2014,09,06,07,11,11.70
2014,09,06,07,12,11.70
2014,09,06,07,13,11.70
2014,09,06,07,14,11.70
2014,09,06,07,15,11.70
2014,09,06,07,16,11.80
2014,09,06,07,17,11.80
2014,09,06,07,18,11.80
2014,09,06,07,19,11.80
2014,09,06,07,20,11.80
2014,09,06,07,21,11.80
2014,09,06,07,22,11.80
2014,09,06,07,23,11.80
2014,09,06,07,24,11.80
2014,09,06,07,25,11.80
2014,09,06,07,26,11.90
2014,09,06,07,27,11.90
2014,09,06,07,28,11.90
2014,09,06,07,29,11.90
2014,09,06,07,30,11.90
2014,09,06,07,31,12.00
2014,09,06,07,32,12.10
2014,09,06,07,33,12.10
2014,09,06,07,34,12.10
2014,09,06,07,35,12.10
2014,09,06,07,36,12.20
2014,09,06,07,37,12.20
2014,09,06,07,38,12.20
2014,09,06,07,39,12.20
2014,09,06,07,40,12.20
2014,09,06,07,41,12.20
2014,09,06,07,42,12.30
2014,09,06,07,43,12.30
2014,09,06,07,44,12.30
2014,09,06,07,45,12.30
2014,09,06,07,46,12.40
2014,09,06,07,47,12.40
2014,09,06,07,48,12.50
2014,09,06,07,49,12.50
2014,09,06,07,50,12.60
2014,09,06,07,51,12.60
2014,09,06,07,52,12.60
2014,09,06,07,53,12.70
2014,09,06,07,54,12.70
2014,09,06,07,55,12.80
2014,09,06,07,56,12.90
2014,09,06,07,57,12.90
2014,09,06,07,58,13.00
2014,09,06,07,59,13.00
2014,09,06,08,00,13.10
2014,09,06,08,01,13.20
2014,09,06,08,02,13.20
2014,09,06,08,03,13.30
2014,09,06,08,04,13.30
2014,09,06,08,05,13.40
2014,09,06,08,06,13.50
2014,09,06,08,07,13.60
2014,09,06,08,08,13.60
2014,09,06,08,09,13.70
2014,09,06,08,10,13.80
2014,09,06,08,11,13.80
2014,09,06,08,12,13.90
2014,09,06,08,13,13.90
2014,09,06,08,14,13.90
2014,09,06,08,15,14.00
2014,09,06,08,16,14.10
2014,09,06,08,17,14.10
2014,09,06,08,18,14.10
2014,09,06,08,19,14.20
2014,09,06,08,20,14.20
2014,09,06,08,21,14.20
2014,09,06,08,22,14.20
2014,09,06,08,23,14.30
2014,09,06,08,24,14.30
2014,09,06,08,25,14.40
2014,09,06,08,26,14.40
2014,09,06,08,27,14.50
2014,09,06,08,28,14.50
2014,09,06,08,29,14.50
2014,09,06,08,30,14.60
2014,09,06,08,31,14.60
2014,09,06,08,32,14.60
2014,09,06,08,33,14.70
2014,09,06,08,34,14.70
2014,09,06,08,35,14.70
2014,09,06,08,36,14.70
2014,09,06,08,37,14.70
2014,09,06,08,38,14.80
2014,09,06,08,39,14.80
2014,09,06,08,40,14.80
2014,09,06,08,41,14.90
2014,09,06,08,42,14.90
2014,09,06,08,43,15.00
2014,09,06,08,44,15.00
2014,09,06,08,45,15.10
2014,09,06,08,46,15.10
2014,09,06,08,47,15.20
2014,09,06,08,48,15.30
2014,09,06,08,49,15.30
2014,09,06,08,50,15.40
2014,09,06,08,51,15.40
2014,09,06,08,52,15.50
2014,09,06,08,53,15.50
2014,09,06,08,54,15.60
2014,09,06,08,55,15.60
2014,09,06,08,56,15.70
2014,09,06,08,57,15.70
2014,09,06,08,58,15.80
2014,09,06,08,59,15.80
2014,09,06,09,00,15.90
2014,09,06,09,01,16.00
2014,09,06,09,02,16.10
2014,09,06,09,03,16.10
2014,09,06,09,04,16.20
2014,09,06,09,05,16.30
2014,09,06,09,06,16.30
2014,09,06,09,07,16.40
2014,09,06,09,08,16.40
2014,09,06,09,09,16.50
2014,09,06,09,10,16.60
2014,09,06,09,11,16.60
2014,09,06,09,12,16.70
2014,09,06,09,13,16.80
2014,09,06,09,14,16.90
2014,09,06,09,15,17.00
2014,09,06,09,16,17.10
2014,09,06,09,17,17.20
2014,09,06,09,18,17.30
2014,09,06,09,19,17.50
2014,09,06,09,20,17.60
2014,09,06,09,21,17.70
2014,09,06,09,22,17.80
2014,09,06,09,23,17.90
2014,09,06,09,24,18.00
2014,09,06,09,25,18.10
2014,09,06,09,26,18.30
2014,09,06,09,27,18.50
2014,09,06,09,28,18.70
2014,09,06,09,29,18.90
2014,09,06,09,30,19.10
2014,09,06,09,31,19.30
2014,09,06,09,32,19.50
2014,09,06,09,33,19.70
2014,09,06,09,34,20.00
2014,09,06,09,35,20.20
2014,09,06,09,36,20.40
2014,09,06,09,37,20.60
2014,09,06,09,38,20.80
2014,09,06,09,39,21.00
2014,09,06,09,40,21.10
2014,09,06,09,41,21.20
2014,09,06,09,42,21.30
2014,09,06,09,43,21.40
2014,09,06,09,44,21.50
2014,09,06,09,45,21.60
2014,09,06,09,46,21.70
2014,09,06,09,47,21.80
2014,09,06,09,48,21.80
2014,09,06,09,49,21.90
2014,09,06,09,50,22.00
2014,09,06,09,51,22.00
2014,09,06,09,52,22.10
2014,09,06,09,53,22.20
2014,09,06,09,54,22.20
2014,09,06,09,55,22.30
2014,09,06,09,56,22.30
2014,09,06,09,57,22.40
2014,09,06,09,58,22.50
2014,09,06,09,59,22.60
2014,09,06,10,00,22.60
2014,09,06,10,01,22.70
2014,09,06,10,02,22.80
2014,09,06,10,03,22.80
2014,09,06,10,04,22.90
2014,09,06,10,05,22.90
2014,09,06,10,06,22.90
2014,09,06,10,07,23.00
2014,09,06,10,08,23.10
2014,09,06,10,09,23.10
2014,09,06,10,10,23.10
2014,09,06,10,11,23.10
2014,09,06,10,12,23.20
2014,09,06,10,13,23.20
2014,09,06,10,14,23.30
2014,09,06,10,15,23.30
2014,09,06,10,16,23.30
2014,09,06,10,17,23.30
2014,09,06,10,18,23.30
2014,09,06,10,19,23.40
2014,09,06,10,20,23.40
2014,09,06,10,21,23.50
2014,09,06,10,22,23.50
2014,09,06,10,23,23.60
2014,09,06,10,24,23.60
2014,09,06,10,25,23.70
2014,09,06,10,26,23.70
2014,09,06,10,27,23.80
2014,09,06,10,28,23.80
2014,09,06,10,29,23.80
2014,09,06,10,30,23.80
2014,09,06,10,31,23.80
2014,09,06,10,32,23.80
2014,09,06,10,33,23.80
2014,09,06,10,34,23.80
2014,09,06,10,35,23.80
2014,09,06,10,36,23.80
2014,09,06,10,37,23.70
2014,09,06,10,38,23.70
2014,09,06,10,39,23.80
2014,09,06,10,40,23.80
2014,09,06,10,41,23.80
2014,09,06,10,42,23.90
2014,09,06,10,43,23.90
2014,09,06,10,44,24.00
2014,09,06,10,45,24.10
2014,09,06,10,46,24.10
2014,09,06,10,47,24.20
2014,09,06,10,48,24.20
2014,09,06,10,49,24.30
2014,09,06,10,50,24.30
2014,09,06,10,51,24.40
2014,09,06,10,52,24.40
2014,09,06,10,53,24.40
2014,09,06,10,54,24.40
2014,09,06,10,55,24.40
2014,09,06,10,56,24.40
2014,09,06,10,57,24.50
2014,09,06,10,58,24.50
2014,09,06,10,59,24.50
2014,09,06,11,00,24.50
2014,09,06,11,01,24.60
2014,09,06,11,02,24.60
2014,09,06,11,03,24.60
2014,09,06,11,04,24.70
2014,09,06,11,05,24.70
2014,09,06,11,06,24.80
2014,09,06,11,07,24.80
2014,09,06,11,08,24.90
2014,09,06,11,09,25.00
2014,09,06,11,10,25.00
2014,09,06,11,11,25.10
2014,09,06,11,12,25.20
2014,09,06,11,13,25.30
2014,09,06,11,14,25.30
2014,09,06,11,15,25.40
2014,09,06,11,16,25.40
2014,09,06,11,17,25.40
2014,09,06,11,18,25.40
2014,09,06,11,19,25.40
2014,09,06,11,20,25.40
2014,09,06,11,21,25.40
2014,09,06,11,22,25.40
2014,09,06,11,23,25.40
2014,09,06,11,24,25.50
2014,09,06,11,25,25.50
2014,09,06,11,26,25.60
2014,09,06,11,27,25.60
2014,09,06,11,28,25.70
2014,09,06,11,29,25.70
2014,09,06,11,30,25.70
2014,09,06,11,31,25.70
2014,09,06,11,32,25.70
2014,09,06,11,33,25.70
2014,09,06,11,34,25.80
2014,09,06,11,35,25.80
2014,09,06,11,36,25.80
2014,09,06,11,37,25.80
2014,09,06,11,38,25.80
2014,09,06,11,39,25.80
2014,09,06,11,40,25.70
2014,09,06,11,41,25.70
2014,09,06,11,42,25.70
2014,09,06,11,43,25.80
2014,09,06,11,44,25.80
2014,09,06,11,45,25.80
2014,09,06,11,46,25.90
2014,09,06,11,47,25.90
2014,09,06,11,48,25.90
2014,09,06,11,49,25.80
2014,09,06,11,50,25.80
2014,09,06,11,51,25.80
2014,09,06,11,52,25.80
2014,09,06,11,53,25.70
2014,09,06,11,54,25.70
2014,09,06,11,55,25.60
2014,09,06,11,56,25.60
2014,09,06,11,57,25.50
2014,09,06,11,58,25.50
2014,09,06,11,59,25.60
2014,09,06,12,00,25.60
2014,09,06,12,01,25.60
2014,09,06,12,02,25.70
2014,09,06,12,03,25.80
2014,09,06,12,04,25.90
2014,09,06,12,05,26.00
2014,09,06,12,06,26.10
2014,09,06,12,07,26.20
2014,09,06,12,08,26.20
2014,09,06,12,09,26.20
2014,09,06,12,10,26.20
2014,09,06,12,11,26.20
2014,09,06,12,12,26.20
2014,09,06,12,13,26.20
2014,09,06,12,14,26.20
2014,09,06,12,15,26.20
2014,09,06,12,16,26.20
2014,09,06,12,17,26.20
2014,09,06,12,18,26.20
2014,09,06,12,19,26.20
2014,09,06,12,20,26.20
2014,09,06,12,21,26.30
2014,09,06,12,22,26.30
2014,09,06,12,23,26.30
2014,09,06,12,24,26.40
2014,09,06,12,25,26.50
2014,09,06,12,26,26.50
2014,09,06,12,27,26.50
2014,09,06,12,28,26.50
2014,09,06,12,29,26.40
2014,09,06,12,30,26.40
2014,09,06,12,31,26.30
2014,09,06,12,32,26.30
2014,09,06,12,33,26.30
2014,09,06,12,34,26.30
2014,09,06,12,35,26.30
2014,09,06,12,36,26.40
2014,09,06,12,37,26.50
2014,09,06,12,38,26.60
2014,09,06,12,39,26.60
2014,09,06,12,40,26.50
2014,09,06,12,41,26.50
2014,09,06,12,42,26.40
2014,09,06,12,43,26.30
2014,09,06,12,44,26.30
2014,09,06,12,45,26.40
2014,09,06,12,46,26.40
2014,09,06,12,47,26.40
2014,09,06,12,48,26.50
2014,09,06,12,49,26.60
2014,09,06,12,50,26.60
2014,09,06,12,51,26.70
2014,09,06,12,52,26.70
2014,09,06,12,53,26.80
2014,09,06,12,54,26.80
2014,09,06,12,55,26.70
2014,09,06,12,56,26.70
2014,09,06,12,57,26.70
2014,09,06,12,58,26.60
2014,09,06,12,59,26.60
2014,09,06,13,00,26.60
2014,09,06,13,01,26.60
2014,09,06,13,02,26.70
2014,09,06,13,03,26.70
2014,09,06,13,04,26.80
2014,09,06,13,05,26.80
2014,09,06,13,06,26.80
2014,09,06,13,07,26.90
2014,09,06,13,08,26.90
2014,09,06,13,09,26.90
2014,09,06,13,10,27.00
2014,09,06,13,11,27.10
2014,09,06,13,12,27.10
2014,09,06,13,13,27.20
2014,09,06,13,14,27.40
2014,09,06,13,15,27.50
2014,09,06,13,16,27.60
2014,09,06,13,17,27.70
2014,09,06,13,18,27.80
2014,09,06,13,19,27.80
2014,09,06,13,20,27.80
2014,09,06,13,21,27.80
2014,09,06,13,22,27.80
2014,09,06,13,23,27.90
2014,09,06,13,24,27.90
2014,09,06,13,25,27.90
2014,09,06,13,26,27.90
2014,09,06,13,27,27.90
2014,09,06,13,28,27.90
2014,09,06,13,29,27.90
2014,09,06,13,30,27.90
2014,09,06,13,31,27.90
2014,09,06,13,32,27.80
2014,09,06,13,33,27.80
2014,09,06,13,34,27.80
2014,09,06,13,35,27.80
2014,09,06,13,36,27.70
2014,09,06,13,37,27.70
2014,09,06,13,38,27.70
2014,09,06,13,39,27.60
2014,09,06,13,40,27.60
2014,09,06,13,41,27.50
2014,09,06,13,42,27.40
2014,09,06,13,43,27.40
2014,09,06,13,44,27.40
2014,09,06,13,45,27.40
2014,09,06,13,46,27.30
2014,09,06,13,47,27.30
2014,09,06,13,48,27.30
2014,09,06,13,49,27.30
2014,09,06,13,50,27.30
2014,09,06,13,51,27.40
2014,09,06,13,52,27.40
2014,09,06,13,53,27.40
2014,09,06,13,54,27.40
2014,09,06,13,55,27.50
2014,09,06,13,56,27.50
2014,09,06,13,57,27.50
2014,09,06,13,58,27.40
2014,09,06,13,59,27.40
2014,09,06,14,00,27.40
2014,09,06,14,01,27.40
2014,09,06,14,02,27.40
2014,09,06,14,03,27.50
2014,09,06,14,04,27.60
2014,09,06,14,05,27.60
2014,09,06,14,06,27.50
2014,09,06,14,07,27.40
2014,09,06,14,08,27.40
2014,09,06,14,09,27.40
2014,09,06,14,10,27.40
2014,09,06,14,11,27.40
2014,09,06,14,12,27.50
2014,09,06,14,13,27.50
2014,09,06,14,14,27.40
2014,09,06,14,15,27.40
2014,09,06,14,16,27.40
2014,09,06,14,17,27.40
2014,09,06,14,18,27.40
2014,09,06,14,19,27.40
2014,09,06,14,20,27.40
2014,09,06,14,21,27.50
2014,09,06,14,22,27.50
2014,09,06,14,23,27.60
2014,09,06,14,24,27.60
2014,09,06,14,25,27.60
2014,09,06,14,26,27.70
2014,09,06,14,27,27.70
2014,09,06,14,28,27.80
2014,09,06,14,29,27.80
2014,09,06,14,30,27.80
2014,09,06,14,31,27.70
2014,09,06,14,32,27.70
2014,09,06,14,33,27.70
2014,09,06,14,34,27.70
2014,09,06,14,35,27.70
2014,09,06,14,36,27.70
2014,09,06,14,37,27.70
2014,09,06,14,38,27.80
2014,09,06,14,39,27.80
2014,09,06,14,40,27.70
2014,09,06,14,41,27.70
2014,09,06,14,42,27.70
2014,09,06,14,43,27.70
2014,09,06,14,44,27.70
2014,09,06,14,45,27.80
2014,09,06,14,46,27.90
2014,09,06,14,47,27.90
2014,09,06,14,48,27.90
2014,09,06,14,49,28.00
2014,09,06,14,50,27.90
2014,09,06,14,51,27.90
2014,09,06,14,52,27.90
2014,09,06,14,53,27.90
2014,09,06,14,54,27.90
2014,09,06,14,55,27.90
2014,09,06,14,56,27.80
2014,09,06,14,57,27.80
2014,09,06,14,58,27.70
2014,09,06,14,59,27.70
2014,09,06,15,00,27.70
2014,09,06,15,01,27.70
2014,09,06,15,02,27.60
2014,09,06,15,03,27.60
2014,09,06,15,04,27.60
2014,09,06,15,05,27.70
2014,09,06,15,06,27.70
2014,09,06,15,07,27.80
2014,09,06,15,08,27.80
2014,09,06,15,09,27.70
2014,09,06,15,10,27.70
2014,09,06,15,11,27.70
2014,09,06,15,12,27.60
2014,09,06,15,13,27.60
2014,09,06,15,14,27.60
2014,09,06,15,15,27.60
2014,09,06,15,16,27.60
2014,09,06,15,17,27.60
2014,09,06,15,18,27.50
2014,09,06,15,19,27.50
2014,09,06,15,20,27.50
2014,09,06,15,21,27.50
2014,09,06,15,22,27.50
2014,09,06,15,23,27.40
2014,09,06,15,24,27.40
2014,09,06,15,25,27.40
2014,09,06,15,26,27.40
2014,09,06,15,27,27.40
2014,09,06,15,28,27.40
2014,09,06,15,29,27.50
2014,09,06,15,30,27.50
2014,09,06,15,31,27.60
2014,09,06,15,32,27.60
2014,09,06,15,33,27.60
2014,09,06,15,34,27.70
2014,09,06,15,35,27.70
2014,09,06,15,36,27.70
2014,09,06,15,37,27.80
2014,09,06,15,38,27.80
2014,09,06,15,39,27.80
2014,09,06,15,40,27.80
2014,09,06,15,41,27.80
2014,09,06,15,42,27.80
2014,09,06,15,43,27.80
2014,09,06,15,44,27.80
2014,09,06,15,45,27.70
2014,09,06,15,46,27.70
2014,09,06,15,47,27.80
2014,09,06,15,48,27.80
2014,09,06,15,49,27.80
2014,09,06,15,50,27.80
2014,09,06,15,51,27.80
2014,09,06,15,52,27.80
2014,09,06,15,53,27.80
2014,09,06,15,54,27.80
2014,09,06,15,55,27.80
2014,09,06,15,56,27.80
2014,09,06,15,57,27.90
2014,09,06,15,58,27.90
2014,09,06,15,59,27.90
2014,09,06,16,00,27.90
2014,09,06,16,01,27.90
2014,09,06,16,02,28.00
2014,09,06,16,03,28.00
2014,09,06,16,04,28.00
2014,09,06,16,05,28.00
2014,09,06,16,06,28.00
2014,09,06,16,07,28.00
2014,09,06,16,08,28.00
2014,09,06,16,09,28.00
2014,09,06,16,10,28.10
2014,09,06,16,11,28.00
2014,09,06,16,12,28.00
2014,09,06,16,13,27.90
2014,09,06,16,14,27.90
2014,09,06,16,15,27.80
2014,09,06,16,16,27.80
2014,09,06,16,17,27.70
2014,09,06,16,18,27.70
2014,09,06,16,19,27.60
2014,09,06,16,20,27.60
2014,09,06,16,21,27.50
2014,09,06,16,22,27.40
2014,09,06,16,23,27.30
2014,09,06,16,24,27.30
2014,09,06,16,25,27.30
2014,09,06,16,26,27.20
2014,09,06,16,27,27.20
2014,09,06,16,28,27.20
2014,09,06,16,29,27.20
2014,09,06,16,30,27.20
2014,09,06,16,31,27.20
2014,09,06,16,32,27.20
2014,09,06,16,33,27.20
2014,09,06,16,34,27.20
2014,09,06,16,35,27.20
2014,09,06,16,36,27.30
2014,09,06,16,37,27.30
2014,09,06,16,38,27.30
2014,09,06,16,39,27.30
2014,09,06,16,40,27.40
2014,09,06,16,41,27.40
2014,09,06,16,42,27.40
2014,09,06,16,43,27.40
2014,09,06,16,44,27.40
2014,09,06,16,45,27.40
2014,09,06,16,46,27.40
2014,09,06,16,47,27.40
2014,09,06,16,48,27.40
2014,09,06,16,49,27.50
2014,09,06,16,50,27.50
2014,09,06,16,51,27.60
2014,09,06,16,52,27.60
2014,09,06,16,53,27.60
2014,09,06,16,54,27.60
2014,09,06,16,55,27.60
2014,09,06,16,56,27.60
2014,09,06,16,57,27.60
2014,09,06,16,58,27.60
2014,09,06,16,59,27.60
2014,09,06,17,00,27.60
2014,09,06,17,01,27.70
2014,09,06,17,02,27.70
2014,09,06,17,03,27.70
2014,09,06,17,04,27.70
2014,09,06,17,05,27.70
2014,09,06,17,06,27.60
2014,09,06,17,07,27.60
2014,09,06,17,08,27.60
2014,09,06,17,09,27.60
2014,09,06,17,10,27.60
2014,09,06,17,11,27.60
2014,09,06,17,12,27.60
2014,09,06,17,13,27.60
2014,09,06,17,14,27.60
2014,09,06,17,15,27.50
2014,09,06,17,16,27.50
2014,09,06,17,17,27.40
2014,09,06,17,18,27.40
2014,09,06,17,19,27.40